Location: Équennes
(49.7375°N, 1.9622°E)
Time: 01:25:52
(UTC+00:00)

ATLAS 2AS CENTAUR R/B - Pass Details

Date: 28 January 2023
Orbit: 986 x 1226 km, 63.7° (Epoch: 30 March)

Event Time Altitude Azimuth Distance (km) Brightness Sun altitude
Rises 19:08:52 0° 317° (NW) 3,994 6.3 -23.9°
Reaches altitude 10° 19:11:39 10° 317° (NW) 2,997 5.6 -24.4°
Maximum altitude 19:18:45 87° 230° (SW) 1,076 2.6 -25.5°
Enters shadow 19:21:11 44° 143° (SE) 1,429 3.0 -25.9°
